www.pogodaiklimat.ru
ПОГОДА в Багио

Архив погоды в Багио (Филиппины)

Время
(UTC), дата
12 6.08
15 6.08
18 6.08
21 6.08
00 7.08
03 7.08
06 7.08
00 8.08
03 8.08
06 8.08
09 8.08
12 8.08
15 8.08
18 8.08
21 8.08
00 9.08
03 9.08
06 9.08
09 9.08
12 9.08
15 9.08
18 9.08
21 9.08
00 10.08
03 10.08
06 10.08
09 10.08
12 10.08
15 10.08
18 10.08
21 10.08
00 11.08
03 11.08
06 11.08
09 11.08
12 11.08
15 11.08
18 11.08
21 11.08
00 12.08
03 12.08
06 12.08
12 12.08
15 12.08
18 12.08
00 13.08
03 13.08
06 13.08
Ветер
(напр.,м/с)
Видим. Явления Облачность Т
(С)
Тd
(С)
f
(%)
Тe
(С)
Тes
(С)
Комфортность P
(гПа)
Po
(гПа)
Тmin
(С)
Tmax
(С)
R
(мм)
R24
(мм)
S
(см)
Ю 2 100 м туман {ливн. дождь} ясно +18.4 +17.8 96 +20 +20 1004.5 848.0 +21.7 0.8
ЮВ 3 100 м слаб. ливневой дождь {туман} ?/? +17.4 +17.0 97 +17 +17 1006.4 849.2 1
ЮВ 2 100 м туман {ливн. дождь} ?/? +17.0 +16.7 98 +17 +17 1005.2 848.6 2
ЮВ 3 3000 м туман 10/6 360 м
[Sc Ac As]
+16.8 +16.2 96 +17 +17 1005.2 848.0
В 2 100 м туман {ливн. дождь} ?/? +17.9 +17.4 97 +18 +25 1006.3 849.1 +16.2 3 3.0
В 3 10 км туман на расстоянии 10/4 360 м
[Sc Ac As]
+18.6 +15.9 84 +20 +23 1007.4 849.8
ЮВ 2 13 км туман на расстоянии 10/5 400 м
[Sc Ac As]
+19.2 +16.4 84 +21 +24 комфорт 1005.3 848.1
В 6 6000 м слаб. дождь 10/6 360 м
[Sc As op]
+16.4 +15.8 96 +15 +15 1007.4 849.3 +16.0 7 6.5
Ю 7 100 м слаб. дождь {ливн. дождь} ?/? +17.2 +16.3 94 +16 +16 1006.6 848.9 3
ЮВ 5 200 м слаб. дождь {ливн. дождь} ?/? +17.2 +16.6 96 +17 +17 1005.6 848.3 4
В 2 8000 м слаб. дождь {ливн. дождь} 10/10 360 м +16.6 +16.0 96 +17 +17 1005.8 847.9 3
В 3 6000 м {дождь, туман} 10/5 360 м
[Sc Ac As]
+16.2 +15.7 97 +16 +16 1007.7 849.2 +17.4 4
В 3 6000 м туман на расстоянии {дождь} 10/10 360 м +16.6 +16.0 96 +16 +16 1007.8 849.6 0.2
В 2 5000 м туман на расстоянии {дождь} 10/6 360 м
[Sc Ac As]
+16.6 +16.0 96 +17 +17 1007.0 848.9 0.2
ЮВ 3 6000 м туман на расстоянии 10/10 400 м +16.4 +15.8 96 +16 +16 1005.9 847.7
В 6 6000 м слаб. дождь 10/6 360 м
[Sc As op]
+16.4 +15.8 96 +15 +15 1007.4 849.3 +15.4 9 8.6
Ю 4 6000 м туман на расстоянии {дождь} 10/6 360 м
[Sc Ac As]
+18.2 +17.9 98 +18 +20 1007.1 849.6 0.4
Ю 2 8000 м туман на расстоянии 10/6 360 м
[Sc Ac As]
+18.6 +17.7 95 +20 +22 1005.7 848.4 0.4
В 2 6000 м слаб. дождь {туман} 10/6 360 м
[Sc Ac As]
+18.2 +17.3 94 +19 +19 1005.6 848.0 0.4
Ю 2 5000 м туман на расстоянии {дождь} 9/5 360 м
[Sc diur, vesp Ac As]
+17.0 +16.7 98 +17 +17 1008.0 860.1 +19.0 0.4
В 2 8000 м мгла 10/10 400 м +16.8 +16.0 95 +17 +17 1008.3 850.3
В 2 8000 м мгла 8/5 420 м
[Sc diur, vesp Ac As]
+16.3 +15.5 95 +16 +16 1007.2 849.4
В 3 5000 м туман на расстоянии {мгла} 10/10 360 м +16.6 +16.1 97 +16 +16 1006.2 848.5
В 2 15 км туман на расстоянии {мгла} 10/3 450 м
[Cu hum Ac As]
+17.4 +16.5 94 +18 +19 1007.6 849.7 +15.9 0.8 0.8
В 2 12 км туман на расстоянии 10/5 400 м
[Cu med, cong Ac As]
+19.8 +19.2 96 +23 +27 комфорт 1007.4 850.3
ЮЗ 2 12 км туман на расстоянии 10/6 360 м
[Cu med, cong Cs]
+22.4 +19.0 81 +28 +33 душно 1005.5 849.3
штиль 0 8000 м гроза, ливневой дождь 10/6 360 м
[Cb cap Ac As]
+19.2 +18.6 96 +21 +21 комфорт 1007.0 849.7 0.0
штиль 0 2000 м слаб. ливневой дождь {гроза} 10/6 360 м
[Sc Ac As]
+19.0 +18.7 98 +21 +21 комфорт 1008.0 850.6 +23.8 1
штиль 0 8000 м мгла {ливн. дождь} 8/4 400 м
[Cu med, cong Ac trans Cs]
+18.0 +15.9 88 +18 +18 1008.8 851.5 0.2
штиль 0 8000 м мгла {ливн. дождь} 8/5 400 м
[Sc diur, vesp Ac trans Cs]
+17.8 +16.3 91 +18 +18 1006.2 849.9 0.2
штиль 0 8000 м мгла 6/1 420 м
[Cu hum Cs]
+17.2 +16.3 94 +17 +17 1006.8 849.3
В 2 15 км {туман} 6/3 300 м
[Sc diur, vesp Ac cast]
+18.4 +17.8 96 +20 +23 1007.8 850.7 +17.0 1 1.2
Ю 2 10 км туман на расстоянии 8/8 360 м +21.4 +18.2 82 +26 +31 душно 1007.7 851.2
З 2 10 км туман на расстоянии 9/9 360 м +21.8 +19.0 84 +27 +30 душно 1006.1 849.8
З 1 2000 м слаб. ливневой дождь {гроза} ?/? +18.4 +18.0 98 +20 +20 1008.0 850.3 2
штиль 0 8000 м слаб. ливневой дождь 10/6 360 м
[Sc Ac As]
+17.8 +17.2 96 +18 +18 1009.2 851.6 +22.8 14
штиль 0 8000 м мгла {дождь} 8/4 400 м
[Sc diur, vesp Cs]
+17.4 +16.8 96 +17 +17 1009.5 852.3 2
штиль 0 8000 м мгла {дождь} 5/1 450 м
[Cu hum Cs]
+17.0 +16.4 96 +17 +17 1007.8 850.9 2
штиль 0 8000 м мгла 3/3 450 м +16.6 +16.0 96 +16 +16 1008.3 850.3
Ю 1 10 км туман на расстоянии 1/1 360 м
[Cu med, cong]
+18.2 +17.3 94 +20 +27 1009.1 851.5 +16.2 17 16.6
штиль 0 8000 м туман на расстоянии 9/9 360 м
[Cu med, cong]
+20.6 +19.7 95 +25 +27 комфорт 1008.4 851.4
7000 м туман на расстоянии н/о +22.4 +20.2 87 +29 +32 очень
душно
1006.8 850.4
штиль 0 6000 м зарница {гроза, туман} 9/9 360 м
[Cb cap]
+19.0 +18.1 95 +21 +21 комфорт 1008.0 850.7 +23.8 0.9
штиль 0 8000 м туман на расстоянии 10/3 360 м
[Sc Ac As]
+18.0 +17.4 96 +18 +18 1009.0 851.9
штиль 0 8000 м мгла 8/3 400 м
[Cu med, cong Ac As]
+17.6 +16.7 94 +18 +18 1007.8 850.8
штиль 0 11 км туман на расстоянии 9/3 400 м
[Cu med, cong Ac As Cs]
+18.4 +16.6 89 +19 +22 1007.8 850.7 +16.5 0.0 0.0
штиль 0 10 км туман на расстоянии 9/6 360 м
[Cu med, cong Cs]
+19.8 +17.5 87 +22 +32 комфорт 1007.8 850.7
З 1 8000 м туман на расстоянии 9/6 360 м
[Cu med, cong Cs]
+24.6 +19.0 71 +30 +36 очень
душно
1004.6 849.3
Местоположение метеостанции Багио (Филиппины): широта 16.42 долгота 120.60 высота над уровнем моря 1501 м.
В архиве по умолчанию представлена погода в Багио за последнюю неделю. Архивные данные за месяц целиком и за предыдущие месяцы, начиная с января 2011 года, Вы можете получить, выбрав интересующий диапазон дат из раскрывающегося списка и нажав кнопку "Найти!".
*Определитесь, кто Вы:
Внимание! Время в таблицах - всемирное. Для получения местного времени необходимо прибавить поправку, которая равна 8 ч.
Смотрите также архив погоды в соседних городах и на ближайших метеорологических станциях:
Партнеры нашего сайта:      
Пояснения к столбцам:
  • Ветер - указаны скорость ветра в м/с - средняя за 10 мин, порывы в срок и между сроками (в фигурных скобках) и направление, откуда дует ветер: С - северный,
  • СВ - северо-восточный, В - восточный, ЮВ - юго-восточный, Ю - южный, ЮЗ - юго-западный, З - западный, СЗ - северо-западный.
  • Видимость - горизонтальная дальность видимости в метрах или километрах. При видимости от 1 до 10 км при отсутствии осадков обычно наблюдается дымка, при ухудшении видимости до 1 км и менее - туман. В сухую погоду видимость может ухудшаться дымом, пылью или мглою.
  • Явления - указаны атмосферные явления, наблюдавшиеся в срок или в последний час перед сроком; фигурными скобками обозначены явления, наблюдавшиеся между сроками (за 1-3 часа до срока); квадратными скобками обозначены град или гололедные отложения с указанием их диаметра в мм.
  • Облачность - указаны через наклонную черту общая и нижняя облачность в баллах и высота нижней границы облаков в метрах; квадратными скобками обозначены формы облаков: Ci - перистые, Cs - перисто-слоистые, Cc - перисто-кучевые, Ac - высококучевые, As - высокослоистые, Sc - слоисто-кучевые, Ns - слоисто-дождевые, Cu - кучевые, Cb - кучево-дождевые. Подробнее классификацию облаков см. в Атласе облаков (PDF).
  • T - Температура воздуха - температура, измеренная на высоте 2 м над землей.
  • Td - Температура точки росы - температура, при понижении до которой содержащийся в воздухе водяной пар достигнет насыщения.
  • f - Относительная влажность воздуха - влажноcть воздуха, измеренная на высоте 2 м над землей.
  • Te - Эффективная температура - температура, которую ощущает одетый по сезону человек в тени. Характеристика душности погоды. При расчете учитывается влияние влажности воздуха и скорости ветра на теплоощущения человека.
  • Tes - Эффективная температура на солнце - температура, которую ощущает человек, с поправкой на солнечный нагрев. Характеристика знойности погоды. Зависит от высоты солнца над горизонтом, облачности и скорости ветра. Ночью, в пасмурную погоду, а также при ветре 12 м/с и более поправка равна нулю.
  • P - Атмосферное давление - приведенное к уровню моря атмосферное давление.
  • Po - Атмосферное давление - измеренное на уровне метеостанции атмосферное давление.
  • Tmin - Минимальная температура - минимум температуры воздуха на высоте 2 м над землей.
  • Tmax - Максимальная температура - максимум температуры воздуха на высоте 2 м над землей.
  • R - Количество осадков - Количество выпавших осадков за период времени, мм. При наведении курсора мыши на число - период времени, за который выпало указанное количество осадков.
  • R24 - Количество осадков - Количество выпавших осадков за 24 часа, мм.
  • S - Снежный покров - Высота снежного покрова, см. При наведении курсора мыши на число - состояние снежного покрова и степень покрытия местности в баллах.